Regional Weather Roundup
Issued by NWS Jackson, KY

Home | Current Version | Previous Version | Graphics & Text | Print | Product List | Glossary On
Versions: 1 2 3 4 5 6 7 8 9 10 11 12 13 14 15 16 17 18 19 20 21 22 23 24 25 26 27 28 29 30 31 32 33 34 35 36 37 38 39 40 41 42 43 44 45 46 47 48 49 50
000
ASUS43 KJKL 161511
RWRJKL

EAST KENTUCKY HOURLY WEATHER ROUNDUP
NATIONAL WEATHER SERVICE JACKSON KY
1100 AM EDT TUE SEP 16 2014

NOTE: "FAIR" INDICATES FEW OR NO CLOUDS BELOW 12,000 FEET WITH
NO SIGNIFICANT WEATHER AND/OR OBSTRUCTIONS TO VISIBILITY.

* THESE REPORTS ARE NOT UNDER NWS QUALITY CONTROL AND MAY NOT
  REPORT WEATHER SUCH AS PRECIPITATION AND FOG.

KYZ079-080-083-085-087-088-110-112-115-119-120-161600
...EASTERN KENTUCKY...

CITY           SKY/WX    TMP DP  RH WIND       PRES   REMARKS
JACKSON        CLOUDY    63  61  93 W3        30.12S FOG
LONDON         CLOUDY    66  62  87 NW5       30.13R
MONTICELLO*    CLOUDY    67  65  93 CALM      30.14S FOG
WILLIAMSBURG*  CLOUDY    64  64 100 CALM      30.13S
MIDDLESBORO*   CLOUDY    68  63  83 NW3       30.12S
HARLAN APT*    CLOUDY    64  63  94 MISG      30.13S
HAZARD APT*    CLOUDY    64  64 100 CALM      30.12  FOG
BLACK MTN*       N/A     59  59 100 CALM        N/A
PIKEVILLE APT* CLOUDY    61  61 100 CALM      30.12R FOG
BIG SANDY*     CLOUDY    63  62  97 N3        30.12S
MOREHEAD APT*  LGT RAIN  61  59  94 CALM      30.16R VSB 1
$$

KYZ035-036-041-042-044-050-067-078-099-161600
...CENTRAL KENTUCKY...

CITY           SKY/WX    TMP DP  RH WIND       PRES   REMARKS
MT STERLING*   CLOUDY    61  59  94 NE7       30.15S
FLEMING/MASON* CLOUDY    57  55  94 NE8       30.16S
DANVILLE*      CLOUDY    61  61 100 N7        30.15S
RICHMOND*      CLOUDY    61  59  94 N8        30.13S
LEXINGTON      CLOUDY    63  58  83 N8        30.14S
FRANKFORT      CLOUDY    61  57  87 NE8       30.15R
$$

KYZ091>093-OHZ055-061-077-WVZ005-015-034-035-042-161600
...SOUTHERN OHIO/WEST VIRGINIA...

CITY           SKY/WX    TMP DP  RH WIND       PRES   REMARKS
COVINGTON      CLOUDY    58  52  80 N10       30.17S
COLUMBUS       CLOUDY    58  49  72 N6        30.17S
DAYTON         CLOUDY    57  52  83 NE5       30.19S
WILMINGTON     CLOUDY    55  50  83 N8        30.17S
HUNTINGTON     CLOUDY    59  58  96 N6        30.13S FOG
CHARLESTON     LGT RAIN  61  58  90 NW6       30.12S
PINEVILLE*     CLOUDY    65  64  93 MISG      30.17S
BECKLEY        CLOUDY    59  56  89 NE5       30.14S FOG
BLUEFIELD      CLOUDY    62  58  86 W5        30.16R
$$

VAZ002-007-008-TNZ017-027-036-066-071-161600
...SOUTHWEST VIRGINIA/EAST TENNESSEE...

CITY           SKY/WX    TMP DP  RH WIND       PRES   REMARKS
WISE*          CLOUDY    64  63  94 NW3       30.16S
JONESVILLE*    CLOUDY    70  64  83 W6        30.14S
ABINGDON*      CLOUDY    69  66  91 W6        30.13F
BRISTOL        CLOUDY    73  63  70 W9        30.11F
KNOXVILLE      PTSUNNY   74  66  76 W5        30.10F
OAK RIDGE      PTSUNNY   74  64  71 VRB3      30.12S
CROSSVILLE     CLOUDY    68  63  84 W5        30.16R
NASHVILLE      CLOUDY    71  64  78 N8        30.14R
$$

...KEY TO REMARKS...
VSB - VISIBILITY IN MILES
WCI - WIND CHILL INDEX
HX  - HEAT INDEX

$$


USA.gov is the U.S. government's official web portal to all federal, state and local government web resources and services.